Other Surface Observations
Issued by NWS Tucson, AZ

Home | Current Version | Previous Version | Text Only | Print | Product List | Glossary On
Versions: 1 2 3 4 5 6 7 8 9 10 11 12 13 14 15 16 17 18 19 20 21 22 23 24 25 26 27 28 29 30 31 32 33 34 35 36 37 38 39 40 41 42 43 44 45 46 47 48 49 50
000
SXUS55 KTWC 160916
OSOTWC

WEATHER ROUNDUP FOR SOUTHEAST ARIZONA
NATIONAL WEATHER SERVICE TUCSON AZ
215 AM MST TUE SEP 16 2014

AZZ504>506-514-161015-
LOCATION       SKY/WX    TMP DP  RH WIND       PRES   REMARKS
TUCSON         CLOUDY    82  60  47 SE12      30.04R
DAVIS-MONTHAN  CLOUDY    79  63  57 SE12      30.03R
CHILDRENS PARK N/A       82  64  54 S8                PIMA CO DEQ
ALVERNON/22ND  N/A      N/A N/A N/A N/A               PIMA CO DEQ
CHERRY/GLENN   N/A      N/A N/A N/A N/A               PIMA CO DEQ
TANGERINE      N/A       82 N/A N/A S5                PIMA CO DEQ
CONTL RANCH    N/A       84  65  53 SE3               PIMA CO DEQ
GRANT/1ST      N/A       82  64  54 S7                PIMA CO DEQ
CRAYCROFT/22ND N/A      N/A N/A N/A N/A               PIMA CO DEQ
GOLFLINKS/KOLB N/A       79  66  65 SE5               PIMA CO DEQ
AJO/12TH       N/A       78  69  73 SE6               PIMA CO DEQ
SAGUARO EAST   N/A      N/A N/A N/A N/A               PIMA CO DEQ
FAIRGROUNDS    N/A       79 N/A N/A SE9               PIMA CO DEQ
SAGUARO        N/A       80  63  56 NW2               *SABINO CYN
SAN CARLOS     N/A       80  60  50 NE4G11            *SAN CARLOS
GREEN VALLEY   N/A       78  64  63 W3                PIMA CO DEQ
HORSE CAMP CYN N/A       73  60  63 E20G28            *ARAVAIPA CYN
RINCON MTNS    N/A       53  53  99 E7G17             *NR MANNING CAMP
$$

AZZ509>511-161015-
LOCATION       SKY/WX    TMP DP  RH WIND       PRES   REMARKS
SAFFORD        CLOUDY    75  61  61 E16       30.08R
STRAY HORSE    N/A       57  53  86 E5                *
TRAIL CABIN    N/A       59  58  96 E5G13             *N OF GRANVILLE
BLACK HILLS    N/A       77  61  58 SE7G16            *N OF FT THOMAS
DRY LAKE       N/A       57  55  94 SE8G12            *NATANES MTNS
NOON CREEK     N/A       68  61  77 SW6               *PINALENO MTNS
COLUMBINE      N/A       51  50  97 S4                *PINALENO MTNS
GUTHRIE        N/A       60  58  93 S14G23            *SW OF GUTHRIE
$$

AZZ502-503-513-161015-
LOCATION       SKY/WX    TMP DP  RH WIND       PRES   REMARKS
NOGALES        LGT RAIN  66  64  93 SE6       30.10F
SELLS          N/A       75  65  72 E8G12             *
SASABE         N/A       70  68  92 CALM              *ALTAR VLY
HOPKINS        N/A       58  53  83 E32G41            *SANTA RITA MTNS
CARR CYN       N/A       64  58  82 N3G14             *W OF HEREFORD
$$

AZZ507-508-512-161015-
LOCATION       SKY/WX    TMP DP  RH WIND       PRES   REMARKS
SIERRA VISTA   LGT RAIN  66  61  82 SE3       30.17S
DOUGLAS        LGT RAIN  66  64  93 SE6       30.16F
EMPIRE MTNS    N/A       66  60  81 SE4G17            *LAS CIENEGAS NCA
MULESHOE RANCH N/A       66  60  82 SE3G16            *PRESERVE
HEADQUARTERS   N/A       66  60  82 CALM              *CHIRICAHUA MTNS
$$

.............................NOTES.............................
THIS IS AN AUTOMATED COLLECTIVE WITH MINIMAL QUALITY CONTROL.
PIMA CO DEQ SITES HAVE NONSTANDARD WIND SENSOR HEIGHTS.
PIMA CO DEQ SITES DO NOT REPORT WIND GUSTS.
* INDICATES WIND SENSORS LOCATED AT 20 FEET INSTEAD OF 33 FEET.
..............................KEY..............................
SKY/WX - SKY CONDITION/WEATHER
TMP    - TEMPERATURE IN FAHRENHEIT
DP     - DEWPOINT IN FAHRENHEIT
RH     - RELATIVE HUMIDITY IN PERCENT
WIND   - DIRECTION AND SPEED IN MILES PER HOUR (MPH)
VRB    - VARIABLE WIND DIRECTION
PRES   - MEAN SEA LEVEL PRESSURE IN INCHES OF MERCURY
         F - FALLING PRESSURE   R - RISING PRESSURE
         S - STEADY PRESSURE
VSB    - VISIBILITY IN MILES
HX     - HEAT INDEX IN FAHRENHEIT
WCI    - WIND CHILL INDEX IN FAHRENHEIT
N/A    - NOT AVAILABLE
AFB    - AIR FORCE BASE
         DAVIS-MONTHAN IS DAVIS-MONTHAN AIR FORCE BASE
CYN    - CANYON
MTNS   - MOUNTAINS
NCA    - NATIONAL CONSERVATION AREA
NR     - NEAR
VLY    - VALLEY
CONTL  - CONTINENTAL
PIMA CO DEQ - PIMA COUNTY DEPT OF ENVIRONMENTAL QUALITY



USA.gov is the U.S. government's official web portal to all federal, state and local government web resources and services.